Year,Month,Day,Hour,Minute,Value (Times are PST for temperature in C)
2007,07,10,00,00,24.20
2007,07,10,00,01,24.20
2007,07,10,00,02,24.20
2007,07,10,00,03,24.10
2007,07,10,00,04,24.10
2007,07,10,00,05,24.10
2007,07,10,00,06,24.10
2007,07,10,00,07,24.10
2007,07,10,00,08,24.10
2007,07,10,00,09,24.00
2007,07,10,00,10,24.00
2007,07,10,00,11,23.90
2007,07,10,00,12,23.90
2007,07,10,00,13,23.90
2007,07,10,00,14,23.90
2007,07,10,00,15,23.90
2007,07,10,00,16,23.80
2007,07,10,00,17,23.80
2007,07,10,00,18,23.80
2007,07,10,00,19,23.90
2007,07,10,00,20,23.90
2007,07,10,00,21,23.80
2007,07,10,00,22,23.80
2007,07,10,00,23,23.80
2007,07,10,00,24,23.80
2007,07,10,00,25,23.80
2007,07,10,00,26,23.80
2007,07,10,00,27,23.80
2007,07,10,00,28,23.80
2007,07,10,00,29,23.80
2007,07,10,00,30,23.80
2007,07,10,00,31,23.80
2007,07,10,00,32,23.80
2007,07,10,00,33,23.80
2007,07,10,00,34,23.70
2007,07,10,00,35,23.70
2007,07,10,00,36,23.70
2007,07,10,00,37,23.70
2007,07,10,00,38,23.70
2007,07,10,00,39,23.60
2007,07,10,00,40,23.60
2007,07,10,00,41,23.60
2007,07,10,00,42,23.60
2007,07,10,00,43,23.60
2007,07,10,00,44,23.60
2007,07,10,00,45,23.50
2007,07,10,00,46,23.40
2007,07,10,00,47,23.30
2007,07,10,00,48,23.20
2007,07,10,00,49,23.10
2007,07,10,00,50,23.10
2007,07,10,00,51,23.10
2007,07,10,00,52,23.00
2007,07,10,00,53,22.90
2007,07,10,00,54,22.80
2007,07,10,00,55,22.70
2007,07,10,00,56,22.60
2007,07,10,00,57,22.60
2007,07,10,00,58,22.60
2007,07,10,00,59,22.50
2007,07,10,01,00,22.50
2007,07,10,01,01,22.40
2007,07,10,01,02,22.40
2007,07,10,01,03,22.30
2007,07,10,01,04,22.20
2007,07,10,01,05,22.10
2007,07,10,01,06,22.00
2007,07,10,01,07,22.00
2007,07,10,01,08,21.90
2007,07,10,01,09,21.90
2007,07,10,01,10,21.80
2007,07,10,01,11,21.80
2007,07,10,01,12,21.80
2007,07,10,01,13,21.80
2007,07,10,01,14,21.80
2007,07,10,01,15,21.80
2007,07,10,01,16,21.80
2007,07,10,01,17,21.90
2007,07,10,01,18,21.90
2007,07,10,01,19,22.00
2007,07,10,01,20,22.00
2007,07,10,01,21,22.00
2007,07,10,01,22,22.10
2007,07,10,01,23,22.10
2007,07,10,01,24,22.00
2007,07,10,01,25,22.00
2007,07,10,01,26,21.90
2007,07,10,01,27,21.90
2007,07,10,01,28,21.90
2007,07,10,01,29,21.80
2007,07,10,01,30,21.90
2007,07,10,01,31,21.90
2007,07,10,01,32,21.90
2007,07,10,01,33,21.90
2007,07,10,01,34,21.80
2007,07,10,01,35,21.80
2007,07,10,01,36,21.80
2007,07,10,01,37,21.80
2007,07,10,01,38,21.70
2007,07,10,01,39,21.60
2007,07,10,01,40,21.50
2007,07,10,01,41,21.40
2007,07,10,01,42,21.40
2007,07,10,01,43,21.40
2007,07,10,01,44,21.40
2007,07,10,01,45,21.50
2007,07,10,01,46,21.50
2007,07,10,01,47,21.60
2007,07,10,01,48,21.50
2007,07,10,01,49,21.40
2007,07,10,01,50,21.30
2007,07,10,01,51,21.20
2007,07,10,01,52,21.10
2007,07,10,01,53,21.10
2007,07,10,01,54,21.10
2007,07,10,01,55,21.20
2007,07,10,01,56,21.30
2007,07,10,01,57,21.40
2007,07,10,01,58,21.40
2007,07,10,01,59,21.50
2007,07,10,02,00,21.50
2007,07,10,02,01,21.60
2007,07,10,02,02,21.70
2007,07,10,02,03,21.80
2007,07,10,02,04,21.80
2007,07,10,02,05,21.80
2007,07,10,02,06,21.80
2007,07,10,02,07,21.80
2007,07,10,02,08,21.80
2007,07,10,02,09,21.80
2007,07,10,02,10,21.80
2007,07,10,02,11,21.80
2007,07,10,02,12,21.80
2007,07,10,02,13,21.80
2007,07,10,02,14,21.80
2007,07,10,02,15,21.70
2007,07,10,02,16,21.70
2007,07,10,02,17,21.70
2007,07,10,02,18,21.80
2007,07,10,02,19,21.80
2007,07,10,02,20,21.80
2007,07,10,02,21,21.80
2007,07,10,02,22,21.80
2007,07,10,02,23,21.80
2007,07,10,02,24,21.80
2007,07,10,02,25,21.70
2007,07,10,02,26,21.70
2007,07,10,02,27,21.60
2007,07,10,02,28,21.60
2007,07,10,02,29,21.50
2007,07,10,02,30,21.50
2007,07,10,02,31,21.50
2007,07,10,02,32,21.50
2007,07,10,02,33,21.40
2007,07,10,02,34,21.40
2007,07,10,02,35,21.40
2007,07,10,02,36,21.40
2007,07,10,02,37,21.40
2007,07,10,02,38,21.40
2007,07,10,02,39,21.40
2007,07,10,02,40,21.30
2007,07,10,02,41,21.30
2007,07,10,02,42,21.30
2007,07,10,02,43,21.20
2007,07,10,02,44,21.20
2007,07,10,02,45,21.20
2007,07,10,02,46,21.30
2007,07,10,02,47,21.30
2007,07,10,02,48,21.30
2007,07,10,02,49,21.30
2007,07,10,02,50,21.30
2007,07,10,02,51,21.40
2007,07,10,02,52,21.40
2007,07,10,02,53,21.50
2007,07,10,02,54,21.50
2007,07,10,02,55,21.50
2007,07,10,02,56,21.60
2007,07,10,02,57,21.60
2007,07,10,02,58,21.60
2007,07,10,02,59,21.70
2007,07,10,03,00,21.80
2007,07,10,03,01,21.80
2007,07,10,03,02,21.90
2007,07,10,03,03,22.00
2007,07,10,03,04,22.00
2007,07,10,03,05,22.10
2007,07,10,03,06,22.20
2007,07,10,03,07,22.20
2007,07,10,03,08,22.20
2007,07,10,03,09,22.30
2007,07,10,03,10,22.30
2007,07,10,03,11,22.30
2007,07,10,03,12,22.20
2007,07,10,03,13,22.20
2007,07,10,03,14,22.20
2007,07,10,03,15,22.20
2007,07,10,03,16,22.10
2007,07,10,03,17,22.10
2007,07,10,03,18,22.00
2007,07,10,03,19,22.00
2007,07,10,03,20,21.90
2007,07,10,03,21,21.90
2007,07,10,03,22,21.90
2007,07,10,03,23,21.90
2007,07,10,03,24,21.80
2007,07,10,03,25,21.80
2007,07,10,03,26,21.80
2007,07,10,03,27,21.80
2007,07,10,03,28,21.80
2007,07,10,03,29,21.90
2007,07,10,03,30,21.90
2007,07,10,03,31,21.90
2007,07,10,03,32,22.00
2007,07,10,03,33,22.00
2007,07,10,03,34,21.90
2007,07,10,03,35,21.90
2007,07,10,03,36,21.90
2007,07,10,03,37,21.90
2007,07,10,03,38,21.80
2007,07,10,03,39,21.80
2007,07,10,03,40,21.80
2007,07,10,03,41,21.80
2007,07,10,03,42,21.80
2007,07,10,03,43,21.80
2007,07,10,03,44,21.80
2007,07,10,03,45,21.80
2007,07,10,03,46,21.70
2007,07,10,03,47,21.70
2007,07,10,03,48,21.60
2007,07,10,03,49,21.60
2007,07,10,03,50,21.60
2007,07,10,03,51,21.50
2007,07,10,03,52,21.50
2007,07,10,03,53,21.40
2007,07,10,03,54,21.40
2007,07,10,03,55,21.40
2007,07,10,03,56,21.40
2007,07,10,03,57,21.40
2007,07,10,03,58,21.40
2007,07,10,03,59,21.40
2007,07,10,04,00,21.40
2007,07,10,04,01,21.30
2007,07,10,04,02,21.30
2007,07,10,04,03,21.30
2007,07,10,04,04,21.30
2007,07,10,04,05,21.30
2007,07,10,04,06,21.30
2007,07,10,04,07,21.30
2007,07,10,04,08,21.30
2007,07,10,04,09,21.30
2007,07,10,04,10,21.30
2007,07,10,04,11,21.20
2007,07,10,04,12,21.20
2007,07,10,04,13,21.20
2007,07,10,04,14,21.10
2007,07,10,04,15,21.10
2007,07,10,04,16,21.10
2007,07,10,04,17,21.20
2007,07,10,04,18,21.20
2007,07,10,04,19,21.20
2007,07,10,04,20,21.30
2007,07,10,04,21,21.30
2007,07,10,04,22,21.30
2007,07,10,04,23,21.30
2007,07,10,04,24,21.30
2007,07,10,04,25,21.30
2007,07,10,04,26,21.30
2007,07,10,04,27,21.20
2007,07,10,04,28,21.20
2007,07,10,04,29,21.20
2007,07,10,04,30,21.20
2007,07,10,04,31,21.20
2007,07,10,04,32,21.20
2007,07,10,04,33,21.20
2007,07,10,04,34,21.20
2007,07,10,04,35,21.20
2007,07,10,04,36,21.20
2007,07,10,04,37,21.20
2007,07,10,04,38,21.20
2007,07,10,04,39,21.20
2007,07,10,04,40,21.10
2007,07,10,04,41,21.10
2007,07,10,04,42,21.10
2007,07,10,04,43,21.20
2007,07,10,04,44,21.20
2007,07,10,04,45,21.20
2007,07,10,04,46,21.20
2007,07,10,04,47,21.20
2007,07,10,04,48,21.20
2007,07,10,04,49,21.20
2007,07,10,04,50,21.20
2007,07,10,04,51,21.20
2007,07,10,04,52,21.20
2007,07,10,04,53,21.20
2007,07,10,04,54,21.20
2007,07,10,04,55,21.20
2007,07,10,04,56,21.20
2007,07,10,04,57,21.20
2007,07,10,04,58,21.20
2007,07,10,04,59,21.20
2007,07,10,05,00,21.20
2007,07,10,05,01,21.20
2007,07,10,05,02,21.20
2007,07,10,05,03,21.20
2007,07,10,05,04,21.20
2007,07,10,05,05,21.30
2007,07,10,05,06,21.30
2007,07,10,05,07,21.20
2007,07,10,05,08,21.20
2007,07,10,05,09,21.20
2007,07,10,05,10,21.20
2007,07,10,05,11,21.20
2007,07,10,05,12,21.20
2007,07,10,05,13,21.10
2007,07,10,05,14,21.10
2007,07,10,05,15,21.10
2007,07,10,05,16,21.10
2007,07,10,05,17,21.10
2007,07,10,05,18,21.10
2007,07,10,05,19,21.10
2007,07,10,05,20,21.10
2007,07,10,05,21,21.00
2007,07,10,05,22,21.00
2007,07,10,05,23,20.90
2007,07,10,05,24,20.90
2007,07,10,05,25,20.90
2007,07,10,05,26,20.90
2007,07,10,05,27,20.90
2007,07,10,05,28,20.80
2007,07,10,05,29,20.80
2007,07,10,05,30,20.80
2007,07,10,05,31,20.80
2007,07,10,05,32,20.80
2007,07,10,05,33,20.80
2007,07,10,05,34,20.80
2007,07,10,05,35,20.80
2007,07,10,05,36,20.70
2007,07,10,05,37,20.70
2007,07,10,05,38,20.70
2007,07,10,05,39,20.70
2007,07,10,05,40,20.60
2007,07,10,05,41,20.60
2007,07,10,05,42,20.60
2007,07,10,05,43,20.60
2007,07,10,05,44,20.60
2007,07,10,05,45,20.60
2007,07,10,05,46,20.60
2007,07,10,05,47,20.60
2007,07,10,05,48,20.60
2007,07,10,05,49,20.60
2007,07,10,05,50,20.50
2007,07,10,05,51,20.50
2007,07,10,05,52,20.50
2007,07,10,05,53,20.50
2007,07,10,05,54,20.40
2007,07,10,05,55,20.50
2007,07,10,05,56,20.40
2007,07,10,05,57,20.50
2007,07,10,05,58,20.50
2007,07,10,05,59,20.50
2007,07,10,06,00,20.60
2007,07,10,06,01,20.60
2007,07,10,06,02,20.70
2007,07,10,06,03,20.80
2007,07,10,06,04,20.80
2007,07,10,06,05,20.80
2007,07,10,06,06,20.80
2007,07,10,06,07,20.80
2007,07,10,06,08,20.80
2007,07,10,06,09,20.80
2007,07,10,06,10,20.80
2007,07,10,06,11,20.80
2007,07,10,06,12,20.80
2007,07,10,06,13,20.80
2007,07,10,06,14,20.80
2007,07,10,06,15,20.80
2007,07,10,06,16,20.80
2007,07,10,06,17,20.80
2007,07,10,06,18,20.80
2007,07,10,06,19,20.80
2007,07,10,06,20,20.80
2007,07,10,06,21,20.80
2007,07,10,06,22,20.80
2007,07,10,06,23,20.80
2007,07,10,06,24,20.80
2007,07,10,06,25,20.80
2007,07,10,06,26,20.80
2007,07,10,06,27,20.80
2007,07,10,06,28,20.80
2007,07,10,06,29,20.80
2007,07,10,06,30,20.90
2007,07,10,06,31,20.90
2007,07,10,06,32,20.90
2007,07,10,06,33,21.00
2007,07,10,06,34,21.00
2007,07,10,06,35,21.10
2007,07,10,06,36,21.10
2007,07,10,06,37,21.10
2007,07,10,06,38,21.20
2007,07,10,06,39,21.20
2007,07,10,06,40,21.20
2007,07,10,06,41,21.20
2007,07,10,06,42,21.20
2007,07,10,06,43,21.20
2007,07,10,06,44,21.20
2007,07,10,06,45,21.30
2007,07,10,06,46,21.30
2007,07,10,06,47,21.30
2007,07,10,06,48,21.30
2007,07,10,06,49,21.30
2007,07,10,06,50,21.30
2007,07,10,06,51,21.30
2007,07,10,06,52,21.30
2007,07,10,06,53,21.30
2007,07,10,06,54,21.30
2007,07,10,06,55,21.30
2007,07,10,06,56,21.40
2007,07,10,06,57,21.40
2007,07,10,06,58,21.40
2007,07,10,06,59,21.40
2007,07,10,07,00,21.40
2007,07,10,07,01,21.40
2007,07,10,07,02,21.40
2007,07,10,07,03,21.50
2007,07,10,07,04,21.50
2007,07,10,07,05,21.50
2007,07,10,07,06,21.50
2007,07,10,07,07,21.60
2007,07,10,07,08,21.60
2007,07,10,07,09,21.60
2007,07,10,07,10,21.60
2007,07,10,07,11,21.60
2007,07,10,07,12,21.60
2007,07,10,07,13,21.60
2007,07,10,07,14,21.60
2007,07,10,07,15,21.60
2007,07,10,07,16,21.60
2007,07,10,07,17,21.60
2007,07,10,07,18,21.70
2007,07,10,07,19,21.70
2007,07,10,07,20,21.80
2007,07,10,07,21,21.80
2007,07,10,07,22,21.80
2007,07,10,07,23,21.80
2007,07,10,07,24,21.80
2007,07,10,07,25,21.80
2007,07,10,07,26,21.80
2007,07,10,07,27,21.80
2007,07,10,07,28,21.80
2007,07,10,07,29,21.80
2007,07,10,07,30,21.80
2007,07,10,07,31,21.90
2007,07,10,07,32,21.90
2007,07,10,07,33,22.00
2007,07,10,07,34,22.00
2007,07,10,07,35,22.10
2007,07,10,07,36,22.10
2007,07,10,07,37,22.10
2007,07,10,07,38,22.10
2007,07,10,07,39,22.00
2007,07,10,07,40,22.00
2007,07,10,07,41,22.00
2007,07,10,07,42,22.00
2007,07,10,07,43,22.00
2007,07,10,07,44,21.90
2007,07,10,07,45,21.90
2007,07,10,07,46,21.90
2007,07,10,07,47,22.00
2007,07,10,07,48,22.00
2007,07,10,07,49,22.00
2007,07,10,07,50,22.00
2007,07,10,07,51,22.00
2007,07,10,07,52,22.10
2007,07,10,07,53,22.10
2007,07,10,07,54,22.10
2007,07,10,07,55,22.20
2007,07,10,07,56,22.20
2007,07,10,07,57,22.30
2007,07,10,07,58,22.30
2007,07,10,07,59,22.40
2007,07,10,08,00,22.40
2007,07,10,08,01,22.40
2007,07,10,08,02,22.40
2007,07,10,08,03,22.50
2007,07,10,08,04,22.50
2007,07,10,08,05,22.50
2007,07,10,08,06,22.60
2007,07,10,08,07,22.60
2007,07,10,08,08,22.70
2007,07,10,08,09,22.70
2007,07,10,08,10,22.70
2007,07,10,08,11,22.80
2007,07,10,08,12,22.80
2007,07,10,08,13,22.80
2007,07,10,08,14,22.80
2007,07,10,08,15,22.80
2007,07,10,08,16,22.80
2007,07,10,08,17,22.90
2007,07,10,08,18,22.90
2007,07,10,08,19,23.00
2007,07,10,08,20,23.00
2007,07,10,08,21,23.10
2007,07,10,08,22,23.10
2007,07,10,08,23,23.20
2007,07,10,08,24,23.30
2007,07,10,08,25,23.30
2007,07,10,08,26,23.30
2007,07,10,08,27,23.30
2007,07,10,08,28,23.40
2007,07,10,08,29,23.40
2007,07,10,08,30,23.40
2007,07,10,08,31,23.40
2007,07,10,08,32,23.50
2007,07,10,08,33,23.50
2007,07,10,08,34,23.50
2007,07,10,08,35,23.60
2007,07,10,08,36,23.70
2007,07,10,08,37,23.70
2007,07,10,08,38,23.80
2007,07,10,08,39,23.90
2007,07,10,08,40,23.90
2007,07,10,08,41,24.00
2007,07,10,08,42,24.00
2007,07,10,08,43,24.00
2007,07,10,08,44,24.10
2007,07,10,08,45,24.10
2007,07,10,08,46,24.10
2007,07,10,08,47,24.10
2007,07,10,08,48,24.10
2007,07,10,08,49,24.10
2007,07,10,08,50,24.10
2007,07,10,08,51,24.10
2007,07,10,08,52,24.10
2007,07,10,08,53,24.10
2007,07,10,08,54,24.20
2007,07,10,08,55,24.20
2007,07,10,08,56,24.20
2007,07,10,08,57,24.30
2007,07,10,08,58,24.30
2007,07,10,08,59,24.20
2007,07,10,09,00,24.20
2007,07,10,09,01,24.30
2007,07,10,09,02,24.40
2007,07,10,09,03,24.50
2007,07,10,09,04,24.50
2007,07,10,09,05,24.60
2007,07,10,09,06,24.60
2007,07,10,09,07,24.60
2007,07,10,09,08,24.70
2007,07,10,09,09,24.70
2007,07,10,09,10,24.80
2007,07,10,09,11,24.80
2007,07,10,09,12,24.80
2007,07,10,09,13,24.80
2007,07,10,09,14,24.90
2007,07,10,09,15,25.00
2007,07,10,09,16,25.00
2007,07,10,09,17,25.10
2007,07,10,09,18,25.10
2007,07,10,09,19,25.20
2007,07,10,09,20,25.20
2007,07,10,09,21,25.30
2007,07,10,09,22,25.30
2007,07,10,09,23,25.30
2007,07,10,09,24,25.30
2007,07,10,09,25,25.30
2007,07,10,09,26,25.40
2007,07,10,09,27,25.40
2007,07,10,09,28,25.50
2007,07,10,09,29,25.60
2007,07,10,09,30,25.70
2007,07,10,09,31,25.70
2007,07,10,09,32,25.70
2007,07,10,09,33,25.80
2007,07,10,09,34,25.80
2007,07,10,09,35,25.80
2007,07,10,09,36,25.70
2007,07,10,09,37,25.70
2007,07,10,09,38,25.80
2007,07,10,09,39,25.90
2007,07,10,09,40,26.00
2007,07,10,09,41,26.10
2007,07,10,09,42,26.20
2007,07,10,09,43,26.30
2007,07,10,09,44,26.40
2007,07,10,09,45,26.40
2007,07,10,09,46,26.50
2007,07,10,09,47,26.60
2007,07,10,09,48,26.70
2007,07,10,09,49,26.60
2007,07,10,09,50,26.60
2007,07,10,09,51,26.50
2007,07,10,09,52,26.50
2007,07,10,09,53,26.60
2007,07,10,09,54,26.60
2007,07,10,09,55,26.60
2007,07,10,09,56,26.60
2007,07,10,09,57,26.60
2007,07,10,09,58,26.60
2007,07,10,09,59,26.60
2007,07,10,10,00,26.60
2007,07,10,10,01,26.50
2007,07,10,10,02,26.50
2007,07,10,10,03,26.50
2007,07,10,10,04,26.60
2007,07,10,10,05,26.70
2007,07,10,10,06,26.70
2007,07,10,10,07,26.80
2007,07,10,10,08,26.80
2007,07,10,10,09,26.70
2007,07,10,10,10,26.70
2007,07,10,10,11,26.80
2007,07,10,10,12,26.90
2007,07,10,10,13,26.90
2007,07,10,10,14,27.00
2007,07,10,10,15,27.00
2007,07,10,10,16,27.10
2007,07,10,10,17,27.00
2007,07,10,10,18,27.00
2007,07,10,10,19,27.00
2007,07,10,10,20,26.90
2007,07,10,10,21,27.00
2007,07,10,10,22,27.10
2007,07,10,10,23,27.10
2007,07,10,10,24,27.10
2007,07,10,10,25,27.20
2007,07,10,10,26,27.20
2007,07,10,10,27,27.30
2007,07,10,10,28,27.30
2007,07,10,10,29,27.40
2007,07,10,10,30,27.40
2007,07,10,10,31,27.40
2007,07,10,10,32,27.50
2007,07,10,10,33,27.60
2007,07,10,10,34,27.60
2007,07,10,10,35,27.70
2007,07,10,10,36,27.70
2007,07,10,10,37,27.90
2007,07,10,10,38,28.10
2007,07,10,10,39,28.20
2007,07,10,10,40,28.20
2007,07,10,10,41,28.20
2007,07,10,10,42,28.10
2007,07,10,10,43,28.10
2007,07,10,10,44,28.10
2007,07,10,10,45,28.10
2007,07,10,10,46,28.20
2007,07,10,10,47,28.20
2007,07,10,10,48,28.20
2007,07,10,10,49,28.10
2007,07,10,10,50,28.10
2007,07,10,10,51,28.10
2007,07,10,10,52,28.10
2007,07,10,10,53,28.00
2007,07,10,10,54,28.00
2007,07,10,10,55,28.00
2007,07,10,10,56,28.00
2007,07,10,10,57,28.10
2007,07,10,10,58,28.20
2007,07,10,10,59,28.20
2007,07,10,11,00,28.20
2007,07,10,11,01,28.20
2007,07,10,11,02,28.30
2007,07,10,11,03,28.40
2007,07,10,11,04,28.50
2007,07,10,11,05,28.60
2007,07,10,11,06,28.70
2007,07,10,11,07,28.80
2007,07,10,11,08,28.80
2007,07,10,11,09,28.80
2007,07,10,11,10,28.80
2007,07,10,11,11,28.90
2007,07,10,11,12,29.10
2007,07,10,11,13,29.00
2007,07,10,11,14,28.90
2007,07,10,11,15,28.90
2007,07,10,11,16,28.80
2007,07,10,11,17,28.80
2007,07,10,11,18,28.80
2007,07,10,11,19,28.90
2007,07,10,11,20,28.90
2007,07,10,11,21,28.90
2007,07,10,11,22,29.00
2007,07,10,11,23,29.10
2007,07,10,11,24,29.20
2007,07,10,11,25,29.30
2007,07,10,11,26,29.40
2007,07,10,11,27,29.50
2007,07,10,11,28,29.60
2007,07,10,11,29,29.60
2007,07,10,11,30,29.70
2007,07,10,11,31,29.70
2007,07,10,11,32,29.60
2007,07,10,11,33,29.60
2007,07,10,11,34,29.50
2007,07,10,11,35,29.40
2007,07,10,11,36,29.20
2007,07,10,11,37,29.20
2007,07,10,11,38,29.10
2007,07,10,11,39,29.20
2007,07,10,11,40,29.30
2007,07,10,11,41,29.40
2007,07,10,11,42,29.50
2007,07,10,11,43,29.60
2007,07,10,11,44,29.70
2007,07,10,11,45,29.60
2007,07,10,11,46,29.60
2007,07,10,11,47,29.50
2007,07,10,11,48,29.50
2007,07,10,11,49,29.60
2007,07,10,11,50,29.60
2007,07,10,11,51,29.70
2007,07,10,11,52,29.70
2007,07,10,11,53,29.70
2007,07,10,11,54,29.70
2007,07,10,11,55,29.70
2007,07,10,11,56,29.80
2007,07,10,11,57,29.80
2007,07,10,11,58,29.80
2007,07,10,11,59,29.80
2007,07,10,12,00,29.70
2007,07,10,12,01,29.70
2007,07,10,12,02,29.70
2007,07,10,12,03,29.80
2007,07,10,12,04,29.80
2007,07,10,12,05,29.80
2007,07,10,12,06,29.90
2007,07,10,12,07,30.00
2007,07,10,12,08,30.00
2007,07,10,12,09,30.00
2007,07,10,12,10,30.10
2007,07,10,12,11,30.20
2007,07,10,12,12,30.30
2007,07,10,12,13,30.40
2007,07,10,12,14,30.40
2007,07,10,12,15,30.30
2007,07,10,12,16,30.30
2007,07,10,12,17,30.30
2007,07,10,12,18,30.30
2007,07,10,12,19,30.20
2007,07,10,12,20,30.20
2007,07,10,12,21,30.30
2007,07,10,12,22,30.30
2007,07,10,12,23,30.20
2007,07,10,12,24,30.10
2007,07,10,12,25,30.10
2007,07,10,12,26,30.10
2007,07,10,12,27,30.10
2007,07,10,12,28,30.30
2007,07,10,12,29,30.40
2007,07,10,12,30,30.40
2007,07,10,12,31,30.50
2007,07,10,12,32,30.50
2007,07,10,12,33,30.50
2007,07,10,12,34,30.40
2007,07,10,12,35,30.50
2007,07,10,12,36,30.60
2007,07,10,12,37,30.60
2007,07,10,12,38,30.60
2007,07,10,12,39,30.60
2007,07,10,12,40,30.60
2007,07,10,12,41,30.60
2007,07,10,12,42,30.60
2007,07,10,12,43,30.60
2007,07,10,12,44,30.60
2007,07,10,12,45,30.60
2007,07,10,12,46,30.60
2007,07,10,12,47,30.60
2007,07,10,12,48,30.60
2007,07,10,12,49,30.60
2007,07,10,12,50,30.60
2007,07,10,12,51,30.60
2007,07,10,12,52,30.60
2007,07,10,12,53,30.60
2007,07,10,12,54,30.60
2007,07,10,12,55,30.60
2007,07,10,12,56,30.60
2007,07,10,12,57,30.70
2007,07,10,12,58,30.80
2007,07,10,12,59,30.80
2007,07,10,13,00,30.80
2007,07,10,13,01,30.90
2007,07,10,13,02,30.90
2007,07,10,13,03,30.90
2007,07,10,13,04,30.90
2007,07,10,13,05,30.90
2007,07,10,13,06,30.90
2007,07,10,13,07,30.90
2007,07,10,13,08,30.80
2007,07,10,13,09,30.80
2007,07,10,13,10,30.70
2007,07,10,13,11,30.80
2007,07,10,13,12,30.80
2007,07,10,13,13,30.70
2007,07,10,13,14,30.70
2007,07,10,13,15,30.70
2007,07,10,13,16,30.70
2007,07,10,13,17,30.70
2007,07,10,13,18,30.80
2007,07,10,13,19,30.80
2007,07,10,13,20,30.80
2007,07,10,13,21,30.70
2007,07,10,13,22,30.70
2007,07,10,13,23,30.70
2007,07,10,13,24,30.80
2007,07,10,13,25,30.80
2007,07,10,13,26,30.90
2007,07,10,13,27,31.10
2007,07,10,13,28,31.20
2007,07,10,13,29,31.30
2007,07,10,13,30,31.40
2007,07,10,13,31,31.40
2007,07,10,13,32,31.50
2007,07,10,13,33,31.60
2007,07,10,13,34,31.60
2007,07,10,13,35,31.60
2007,07,10,13,36,31.60
2007,07,10,13,37,31.60
2007,07,10,13,38,31.70
2007,07,10,13,39,31.80
2007,07,10,13,40,31.90
2007,07,10,13,41,31.90
2007,07,10,13,42,31.90
2007,07,10,13,43,31.90
2007,07,10,13,44,32.00
2007,07,10,13,45,32.10
2007,07,10,13,46,32.20
2007,07,10,13,47,32.30
2007,07,10,13,48,32.40
2007,07,10,13,49,32.40
2007,07,10,13,50,32.40
2007,07,10,13,51,32.10
2007,07,10,13,52,32.00
2007,07,10,13,53,32.00
2007,07,10,13,54,32.00
2007,07,10,13,55,31.90
2007,07,10,13,56,31.90
2007,07,10,13,57,31.90
2007,07,10,13,58,32.00
2007,07,10,13,59,32.10
2007,07,10,14,00,32.20
2007,07,10,14,01,32.30
2007,07,10,14,02,32.30
2007,07,10,14,03,32.30
2007,07,10,14,04,32.20
2007,07,10,14,05,32.20
2007,07,10,14,06,32.20
2007,07,10,14,07,32.20
2007,07,10,14,08,32.30
2007,07,10,14,09,32.40
2007,07,10,14,10,32.50
2007,07,10,14,11,32.50
2007,07,10,14,12,32.60
2007,07,10,14,13,32.60
2007,07,10,14,14,32.50
2007,07,10,14,15,32.50
2007,07,10,14,16,32.40
2007,07,10,14,17,32.30
2007,07,10,14,18,32.20
2007,07,10,14,19,32.30
2007,07,10,14,20,32.40
2007,07,10,14,21,32.40
2007,07,10,14,22,32.50
2007,07,10,14,23,32.70
2007,07,10,14,24,32.80
2007,07,10,14,25,32.90
2007,07,10,14,26,32.90
2007,07,10,14,27,32.80
2007,07,10,14,28,32.70
2007,07,10,14,29,32.60
2007,07,10,14,30,32.50
2007,07,10,14,31,32.40
2007,07,10,14,32,32.30
2007,07,10,14,33,32.30
2007,07,10,14,34,32.30
2007,07,10,14,35,32.40
2007,07,10,14,36,32.40
2007,07,10,14,37,32.50
2007,07,10,14,38,32.60
2007,07,10,14,39,32.70
2007,07,10,14,40,32.80
2007,07,10,14,41,32.80
2007,07,10,14,42,32.90
2007,07,10,14,43,32.90
2007,07,10,14,44,32.90
2007,07,10,14,45,32.90
2007,07,10,14,46,32.90
2007,07,10,14,47,32.90
2007,07,10,14,48,32.90
2007,07,10,14,49,32.90
2007,07,10,14,50,32.90
2007,07,10,14,51,32.90
2007,07,10,14,52,32.90
2007,07,10,14,53,32.80
2007,07,10,14,54,32.70
2007,07,10,14,55,32.70
2007,07,10,14,56,32.50
2007,07,10,14,57,32.40
2007,07,10,14,58,32.30
2007,07,10,14,59,32.40
2007,07,10,15,00,32.40
2007,07,10,15,01,32.40
2007,07,10,15,02,32.50
2007,07,10,15,03,32.60
2007,07,10,15,04,32.60
2007,07,10,15,05,32.60
2007,07,10,15,06,32.70
2007,07,10,15,07,32.70
2007,07,10,15,08,32.70
2007,07,10,15,09,32.70
2007,07,10,15,10,32.70
2007,07,10,15,11,32.80
2007,07,10,15,12,32.80
2007,07,10,15,13,32.80
2007,07,10,15,14,32.70
2007,07,10,15,15,32.70
2007,07,10,15,16,32.80
2007,07,10,15,17,32.90
2007,07,10,15,18,33.00
2007,07,10,15,19,33.00
2007,07,10,15,20,32.90
2007,07,10,15,21,32.90
2007,07,10,15,22,32.80
2007,07,10,15,23,32.80
2007,07,10,15,24,32.80
2007,07,10,15,25,32.80
2007,07,10,15,26,32.80
2007,07,10,15,27,32.90
2007,07,10,15,28,33.00
2007,07,10,15,29,33.10
2007,07,10,15,30,33.20
2007,07,10,15,31,33.20
2007,07,10,15,32,33.20
2007,07,10,15,33,33.30
2007,07,10,15,34,33.40
2007,07,10,15,35,33.50
2007,07,10,15,36,33.50
2007,07,10,15,37,33.50
2007,07,10,15,38,33.50
2007,07,10,15,39,33.40
2007,07,10,15,40,33.40
2007,07,10,15,41,33.20
2007,07,10,15,42,33.10
2007,07,10,15,43,33.10
2007,07,10,15,44,33.10
2007,07,10,15,45,33.10
2007,07,10,15,46,33.00
2007,07,10,15,47,32.90
2007,07,10,15,48,32.90
2007,07,10,15,49,32.90
2007,07,10,15,50,32.90
2007,07,10,15,51,32.90
2007,07,10,15,52,32.90
2007,07,10,15,53,32.90
2007,07,10,15,54,32.90
2007,07,10,15,55,32.90
2007,07,10,15,56,32.90
2007,07,10,15,57,32.90
2007,07,10,15,58,33.00
2007,07,10,15,59,33.10
2007,07,10,16,00,33.00
2007,07,10,16,01,32.90
2007,07,10,16,02,32.90
2007,07,10,16,03,32.90
2007,07,10,16,04,32.90
2007,07,10,16,05,32.90
2007,07,10,16,06,32.90
2007,07,10,16,07,33.00
2007,07,10,16,08,33.10
2007,07,10,16,09,33.10
2007,07,10,16,10,33.10
2007,07,10,16,11,33.10
2007,07,10,16,12,33.10
2007,07,10,16,13,33.10
2007,07,10,16,14,33.10
2007,07,10,16,15,33.10
2007,07,10,16,16,33.10
2007,07,10,16,17,33.20
2007,07,10,16,18,33.20
2007,07,10,16,19,33.30
2007,07,10,16,20,33.40
2007,07,10,16,21,33.40
2007,07,10,16,22,33.40
2007,07,10,16,23,33.40
2007,07,10,16,24,33.40
2007,07,10,16,25,33.30
2007,07,10,16,26,33.30
2007,07,10,16,27,33.20
2007,07,10,16,28,33.20
2007,07,10,16,29,33.20
2007,07,10,16,30,33.20
2007,07,10,16,31,33.20
2007,07,10,16,32,33.20
2007,07,10,16,33,33.20
2007,07,10,16,34,33.20
2007,07,10,16,35,33.20
2007,07,10,16,36,33.30
2007,07,10,16,37,33.40
2007,07,10,16,38,33.40
2007,07,10,16,39,33.40
2007,07,10,16,40,33.40
2007,07,10,16,41,33.40
2007,07,10,16,42,33.40
2007,07,10,16,43,33.30
2007,07,10,16,44,33.40
2007,07,10,16,45,33.50
2007,07,10,16,46,33.50
2007,07,10,16,47,33.60
2007,07,10,16,48,33.70
2007,07,10,16,49,33.70
2007,07,10,16,50,33.70
2007,07,10,16,51,33.70
2007,07,10,16,52,33.70
2007,07,10,16,53,33.70
2007,07,10,16,54,33.70
2007,07,10,16,55,33.70
2007,07,10,16,56,33.60
2007,07,10,16,57,33.60
2007,07,10,16,58,33.60
2007,07,10,16,59,33.70
2007,07,10,17,00,33.70
2007,07,10,17,01,33.70
2007,07,10,17,02,33.70
2007,07,10,17,03,33.70
2007,07,10,17,04,33.70
2007,07,10,17,05,33.60
2007,07,10,17,06,33.60
2007,07,10,17,07,33.60
2007,07,10,17,08,33.60
2007,07,10,17,09,33.60
2007,07,10,17,10,33.60
2007,07,10,17,11,33.70
2007,07,10,17,12,33.80
2007,07,10,17,13,33.80
2007,07,10,17,14,33.90
2007,07,10,17,15,33.90
2007,07,10,17,16,33.90
2007,07,10,17,17,33.90
2007,07,10,17,18,33.90
2007,07,10,17,19,33.80